Location: Hall Station
(37.5866°N, 122.0652°W)
Time: 11:21:27
(UTC+00:00)

Daily predictions for brighter satellites

Satellite Brightness Start Highest point End
(mag) Time Altitude Azimuth Time Altitude Azimuth Time Altitude Azimuth
Cosmos 1727 Rocket 4.4 12:05:20 10° N 12:11:36 70° E 12:17:52 10° SSE
NOSS 0 Rocket 4.5 12:06:44 10° NW 12:12:22 37° WSW 12:17:59 10° S
Thor Agena Rocket 3.7 12:10:01 10° N 12:15:15 69° WNW 12:20:29 10° SSW
Tiangong -1.7 12:16:16 10° WNW 12:19:19 63° NNE 12:22:21 10° E
Cosmos 1538 Rocket 4.1 12:15:05 10° NNW 12:20:16 82° ENE 12:25:28 10° SSE
